KI5KMR-13 Weather Reports


time (UTC)temp
F
wind
direction
speed
knots
gust
knots
rain 1hr
in
rain 24hr
in
rain mn
in
humidity
%
barometer
mb
20240221213038 76 113 3.5 7.0 0.00 0.00 0.00 62 1013.4
20240221212017 76 113 3.5 9.6 0.00 0.00 0.00 61 1013.6
20240221211038 76 113 2.6 7.8 0.00 0.00 0.00 62 1013.7
20240221210017 75 113 3.5 9.6 0.00 0.00 0.00 63 1013.9
20240221205017 75 113 2.6 7.0 0.00 0.00 0.00 64 1014.0
20240221204018 75 113 3.5 9.6 0.00 0.00 0.00 65 1014.2
20240221203018 75 135 3.5 7.8 0.00 0.00 0.00 67 1014.3
20240221202017 74 113 3.5 7.8 0.00 0.00 0.00 66 1014.4
20240221201018 75 113 4.3 7.8 0.00 0.00 0.00 66 1014.9
20240221200017 75 113 3.5 9.6 0.00 0.00 0.00 69 1015.0
20240221195018 75 113 3.5 8.7 0.00 0.00 0.00 67 1015.1
20240221194037 75 135 3.5 8.7 0.00 0.00 0.00 67 1015.3
20240221193017 76 113 3.5 11.3 0.00 0.00 0.00 66 1015.6
20240221192017 76 113 3.5 9.6 0.00 0.00 0.00 65 1015.8
20240221191017 76 113 3.5 7.8 0.00 0.00 0.00 66 1016.1
20240221190017 76 113 2.6 7.0 0.00 0.00 0.00 66 1016.3
20240221185017 75 113 3.5 12.2 0.00 0.00 0.00 67 1016.4
20240221184018 75 113 2.6 6.1 0.00 0.00 0.00 68 1016.6
20240221183017 74 113 4.3 9.6 0.00 0.00 0.00 67 1016.7
20240221182017 75 113 3.5 7.8 0.00 0.00 0.00 66 1016.9
20240221181017 74 113 3.5 10.4 0.00 0.00 0.00 67 1017.1
20240221180037 74 113 2.6 9.6 0.00 0.00 0.00 68 1017.4
20240221175017 74 113 2.6 7.0 0.00 0.00 0.00 68 1017.7
20240221174017 74 113 2.6 7.0 0.00 0.00 0.00 67 1017.8
20240221173017 73 113 3.5 7.0 0.00 0.00 0.00 67 1018.0
20240221172017 73 113 2.6 6.1 0.00 0.00 0.00 68 1018.1
20240221171018 73 113 1.7 7.8 0.00 0.00 0.00 67 1018.4
20240221170017 72 113 2.6 6.1 0.00 0.00 0.00 70 1018.4
20240221165017 71 113 2.6 7.0 0.00 0.00 0.00 70 1018.5
20240221164017 71 113 2.6 7.0 0.00 0.00 0.00 71 1018.6
20240221163017 70 113 1.7 4.3 0.00 0.00 0.00 72 1018.7
20240221162017 69 113 2.6 7.0 0.00 0.00 0.00 74 1018.8
20240221161118 68 113 2.6 7.0 0.00 0.00 0.00 74 1018.9
20240221160017 67 113 1.7 5.2 0.00 0.00 0.00 76 1018.9
20240221155017 66 113 3.5 7.8 0.00 0.00 0.00 77 1018.8
20240221154017 66 113 2.6 7.8 0.00 0.00 0.00 77 1018.9
20240221153037 65 113 2.6 5.2 0.00 0.00 0.00 78 1018.8
20240221152017 65 113 1.7 5.2 0.00 0.00 0.00 81 1018.8
20240221151037 64 113 2.6 9.6 0.00 0.00 0.00 82 1018.6
20240221150017 64 113 2.6 10.4 0.00 0.00 0.00 82 1018.7
20240221145017 64 135 0.9 5.2 0.00 0.00 0.00 82 1018.6
20240221144037 63 135 2.6 7.8 0.00 0.00 0.00 84 1018.5
20240221143017 62 135 1.7 5.2 0.00 0.00 0.00 86 1018.4
20240221142017 61 135 1.7 6.1 0.00 0.00 0.00 87 1018.4
20240221141016 61 135 1.7 4.3 0.00 0.00 0.00 87 1018.4
20240221140017 61 135 0.9 2.6 0.00 0.00 0.00 88 1018.4
20240221135017 60 135 0.9 6.1 0.00 0.00 0.00 88 1018.4
20240221134037 60 135 0.9 4.3 0.00 0.00 0.00 88 1018.5
20240221133017 60 135 0.9 4.3 0.00 0.00 0.00 88 1018.4
20240221132017 60 135 1.7 6.1 0.00 0.00 0.00 88 1018.5
20240221131019 60 135 0.9 2.6 0.00 0.00 0.00 88 1018.5
20240221130017 60 135 0.9 3.5 0.00 0.00 0.00 88 1018.6
20240221125019 60 135 0.9 4.3 0.00 0.00 0.00 88 1018.6
20240221124020 60 135 0.9 4.3 0.00 0.00 0.00 88 1018.6
20240221123018 60 135 0.9 3.5 0.00 0.00 0.00 88 1018.6
20240221122039 60 135 0.9 4.3 0.00 0.00 0.00 88 1018.7
20240221121019 60 135 0.9 5.2 0.00 0.00 0.00 88 1018.7
20240221120019 60 135 1.7 4.3 0.00 0.00 0.00 89 1018.7
20240221115019 60 135 1.7 4.3 0.00 0.00 0.00 89 1018.7
20240221114018 60 135 0.9 4.3 0.00 0.00 0.00 89 1018.5
20240221113039 60 135 1.7 4.3 0.00 0.00 0.00 89 1018.5
20240221112019 60 135 1.7 4.3 0.00 0.00 0.00 89 1018.4
20240221111019 60 135 1.7 6.1 0.00 0.00 0.00 89 1018.3
20240221110019 60 135 1.7 6.1 0.00 0.00 0.00 89 1018.2
20240221105019 61 135 1.7 4.3 0.00 0.00 0.00 89 1018.3